NOAA 16 DEB, 41399

Orbit data source: Space-Track

NOAA 16 DEB, 41399 is space debris in SSO originally from a launch on Thu, 21 Sep 2000 UTC launched from the Air Force Western Test Range (AFWTR). Debris objects in space refer to the collection of defunct objects orbiting the Earth. Examples of debris include non-operational satellites, rocket bodies, and fragments generated from explosions, collisions, or faulty payload assembly.

Loading next visibility...
Identifier
41399, 2000-055KC
Orbit
SSO
Country
Flag of USUS
Related business
Manufacturer
Unknown
Mission
Spacecraft
Bus & Motor
Unknown
Mass
Unknown
Launch date (UTC)
2000-09-21 (25 years ago)
Launch vehicle
Unknown
Launch site
Air Force Western Test Range (AFWTR)
Object type
Payload
Rocket body
Debris
Shape & HBR
Unknown shape, 0.1 m
Radar Cross Section
Small (<0.1 m²)

Expand to show TLE details & history
Last TLE update: 21 hours ago

TLE from 21 hours ago
0 NOAA 16 DEB
1 41399U 00055KC  25340.37248992  .00005981  00000-0  29775-2 0  9999
2 41399  98.7506  16.3335 0039551  50.8359 309.6319 14.16917026506590
Epoch: 2025-12-06T08:56Z
TLE epoch observation values (Epoch: 2025-12-06T08:56:23.129Z)
Latitude
0.00001°
Longitude
166.83596°
Altitude
820.572 km
Speed
7.452 km/s
True Right ascension
01h 05m 20s
True Declination
0° 00' 00"
Sunlit
Object was in full shadow at epoch
Visualization orbit readout
Latitude
Unknown
Longitude
Unknown
Altitude
Unknown
Speed
Unknown
Apparent Right ascension
Unknown
Apparent Declination
Unknown
Sunlit
N/A
Visualization observer readout
Local Sidereal Time
03:46:01
Azimuth
Unknown
Elevation
Unknown
Doppler factor
Unknown
Orbital elements
Apogee altitude
861.483 km
Perigee altitude
804.442 km
Semi-major axis
7,211.1 km
Eccentricity
0.00396
Inclination
98.7506°
RAAN
16.3335°
Arg. of periapsis
50.8359°
True anomaly
309.28175°
Mean anomaly
309.6319°
Eccentric anomaly
309.45693°
Mean motion
3.54439 °/min
Orbital period
101.57 mins
BSTAR
0.0029775
Loading maneuver chart data...
Computing Atmospheric mass density...
Loading historical data...
Loading historical data...
Loading historical data...
Loading historical data...
Loading historical data...
Loading historical data...
Loading historical data...

Documentation

Showing up to 5 results
|